Wind_Speed
50 51 51 51 51 52 52 52 52 52 52 52 52 52 53 53 53 52 52 52 51 51 52 54 57 60 62 64 63 62 62 61 60 60 62 64 64 66 71 75 78 80 82 83 84 85 86 87 88 89 89 89 89 88 88 88 88 87 86 84 80 78 78 78 78 80 79 78 81 76 69 65 61 62 63 66 67 65 68 65 67 69 63 62 59 58 61 61
52 53 53 54 54 55 55 54 54 54 55 54 54 54 54 55 55 55 55 54 54 53 53 53 54 57 59 62 63 63 63 62 61 60 61 62 62 64 68 70 72 75 79 81 82 84 84 86 87 88 89 89 89 89 90 89 89 88 87 84 81 80 80 81 81 82 82 82 85 76 65 61 61 64 65 66 68 68 69 65 67 67 60 59 59 59 61 59
53 54 55 56 56 56 55 54 55 55 55 56 56 56 57 57 56 57 57 57 56 56 55 54 55 55 57 60 61 62 63 63 62 61 61 62 61 62 65 67 68 70 74 77 80 82 83 85 86 86 87 87 88 89 90 89 89 88 88 85 82 83 84 84 84 86 87 84 82 71 61 62 65 70 69 67 69 69 69 67 67 65 60 60 60 60 59 57
52 53 54 55 55 55 55 55 55 55 56 56 57 57 58 59 59 59 59 58 58 58 57 57 57 57 57 58 58 60 62 63 63 62 62 63 61 61 62 64 66 67 70 72 75 77 81 83 84 85 85 86 86 87 88 88 88 88 88 85 84 86 86 87 88 89 88 81 77 72 67 67 69 74 72 67 69 69 68 68 68 64 59 60 60 59 58 56
52 53 54 55 55 56 57 57 57 57 57 57 57 58 58 60 60 61 61 61 60 60 60 59 59 59 59 58 57 57 59 61 61 61 63 63 62 62 62 63 64 66 68 69 70 72 76 79 82 84 85 85 85 86 86 87 88 87 87 86 87 89 88 90 91 89 84 79 78 78 74 69 70 76 72 68 69 70 69 69 70 64 59 61 60 58 57 55
54 55 56 57 57 58 59 59 60 60 60 60 60 59 60 60 61 62 62 63 62 62 62 61 61 61 61 60 58 57 57 58 56 59 63 64 63 63 63 63 63 64 66 67 68 69 71 74 78 80 83 85 86 85 85 86 87 85 84 86 88 89 90 92 92 87 81 81 83 82 77 71 72 76 71 70 71 72 71 70 71 64 59 61 59 58 57 55
57 58 59 60 60 61 61 62 63 63 63 63 63 63 63 62 62 62 63 64 64 65 64 63 64 64 63 62 61 58 55 56 55 56 61 63 63 63 64 64 63 63 63 64 66 68 69 70 72 75 79 82 85 86 86 87 86 83 82 85 87 88 90 91 90 85 81 85 86 83 78 73 74 74 71 73 73 73 73 70 70 65 58 60 58 58 57 55
60 61 61 62 63 63 64 64 65 65 65 65 65 65 65 65 65 64 64 64 65 66 66 66 66 66 65 64 63 59 56 58 56 53 58 61 61 63 63 64 63 62 62 62 64 67 68 69 69 71 74 77 81 85 86 87 86 82 81 84 85 86 88 89 88 85 83 87 88 83 79 76 75 75 74 76 75 76 75 71 71 64 55 57 59 57 55 53
63 64 64 65 65 66 66 67 67 67 67 67 67 67 67 67 67 67 67 66 65 66 67 67 68 68 67 66 64 60 59 63 58 53 58 61 60 61 61 62 63 62 62 62 63 64 65 67 68 69 70 73 77 80 84 86 85 83 82 84 84 84 85 86 85 84 83 85 87 84 81 79 78 77 76 77 77 77 77 73 72 64 56 60 62 56 54 54
66 66 67 68 68 69 68 69 69 70 70 70 70 70 70 70 69 69 69 68 68 67 67 67 69 70 69 68 65 61 64 68 61 55 57 59 58 59 60 61 62 62 63 63 63 63 63 65 68 70 70 71 72 75 79 81 83 83 84 85 84 83 83 82 80 80 80 82 85 83 81 81 80 79 77 78 78 79 79 76 71 64 60 63 63 57 54 54
68 69 69 70 71 71 71 71 71 72 72 72 73 73 73 73 73 72 71 71 70 69 69 68 69 71 71 70 64 65 71 70 63 58 59 60 58 58 59 59 61 62 63 63 63 63 63 64 67 69 69 69 70 71 73 76 79 82 84 84 83 82 81 79 77 76 77 78 80 81 80 81 80 79 77 79 80 80 80 77 70 65 63 64 63 59 57 55
70 71 72 73 73 74 74 74 74 74 74 75 75 75 75 75 75 75 74 74 73 72 72 71 71 70 71 70 66 71 76 70 64 62 63 63 60 57 57 58 60 62 62 63 63 63 64 64 65 66 67 68 69 69 69 71 73 77 82 81 82 83 81 78 77 76 75 76 77 78 78 77 78 77 77 80 81 80 80 77 72 68 66 65 63 61 61 60
73 73 74 75 76 76 77 77 77 77 77 77 77 78 77 77 77 77 77 77 76 75 74 74 73 71 70 67 69 77 77 70 67 65 65 65 63 61 59 58 59 60 61 62 63 64 64 64 64 64 65 67 68 68 67 68 69 71 75 77 79 83 81 78 78 77 76 75 75 76 74 73 74 75 75 79 80 79 78 78 74 69 66 66 63 62 61 59
75 76 76 77 78 78 79 80 80 80 80 80 80 80 80 80 79 79 79 79 79 78 77 77 75 73 70 66 74 81 77 72 69 67 68 68 66 64 63 61 59 57 59 61 63 64 65 65 65 64 64 64 65 67 66 66 65 66 70 71 74 78 77 77 79 79 77 75 74 74 71 69 70 71 72 76 78 76 75 77 74 68 65 64 61 60 59 58
78 79 79 80 80 81 82 82 82 83 83 83 83 83 83 83 82 82 82 82 82 80 79 79 77 76 71 69 77 81 77 75 72 71 72 68 66 67 66 64 61 58 57 59 62 64 65 66 65 64 63 63 64 64 65 65 63 64 66 65 67 71 74 77 80 80 78 76 75 74 68 66 67 67 69 73 73 71 72 74 72 66 64 63 61 59 58 56
82 82 83 83 84 85 85 85 86 86 86 87 87 87 87 87 86 86 86 85 85 84 81 79 79 79 73 73 80 81 78 78 75 74 72 69 69 69 69 67 64 61 58 58 59 62 64 65 65 64 64 63 62 62 64 64 62 62 62 61 63 67 72 76 79 80 79 78 76 73 67 65 66 65 67 70 67 64 68 69 66 64 62 58 57 57 55 54
85 85 86 86 87 88 88 89 89 89 90 90 90 90 90 90 90 90 90 89 88 87 84 81 80 80 76 78 83 81 80 79 77 76 73 72 72 72 70 68 66 64 61 59 59 59 62 64 65 64 64 62 61 61 62 59 58 60 60 61 62 64 69 72 75 78 77 78 76 72 68 65 66 66 66 65 60 60 63 61 60 60 57 51 50 50 48 49
86 86 86 86 86 86 87 88 89 90 90 91 91 91 92 92 92 92 92 92 91 89 87 84 82 80 79 82 84 83 81 79 79 79 76 75 75 73 72 70 69 66 63 61 59 58 60 62 63 64 63 61 60 59 58 55 56 61 61 61 61 62 66 67 71 75 73 75 77 73 70 66 67 68 66 61 55 57 57 54 55 55 53 49 46 45 42 44
85 84 83 82 82 82 83 84 85 86 86 87 88 88 89 91 90 91 92 91 90 89 87 85 83 81 80 82 84 84 82 80 81 81 79 78 77 75 73 71 71 68 65 61 59 58 59 60 61 60 59 58 58 57 56 55 56 61 62 62 62 62 64 63 68 71 68 71 76 73 69 68 69 70 66 56 52 56 53 49 50 48 46 45 41 41 43 42
83 82 81 81 82 82 82 82 83 83 83 84 84 84 86 87 87 88 88 86 86 86 85 84 82 81 82 83 84 85 85 83 83 82 81 80 78 77 75 73 72 69 66 62 60 60 60 59 55 54 56 58 59 58 58 57 57 62 63 63 63 62 62 61 65 70 66 67 73 71 69 70 70 70 65 54 52 55 48 43 45 43 43 46 44 42 41 39
83 83 83 84 84 84 84 84 83 83 82 82 82 82 83 84 85 84 83 82 82 82 82 81 80 80 82 84 85 86 87 86 84 83 82 81 80 78 76 74 72 69 66 64 63 62 61 55 50 51 57 60 61 60 59 58 59 63 63 62 63 62 61 60 63 69 64 61 69 69 67 70 71 71 65 54 53 54 44 40 42 41 42 46 50 48 42 38
84 84 85 85 84 83 83 83 82 82 81 81 80 81 81 82 83 82 81 79 80 80 79 79 79 79 83 86 86 87 88 87 86 85 83 82 81 80 78 76 73 70 69 69 66 62 58 52 50 53 57 59 62 61 60 60 62 63 62 62 64 60 59 61 62 66 60 53 63 68 65 69 72 72 66 55 54 52 43 40 40 39 40 42 47 50 46 40
86 85 84 82 80 79 79 78 78 77 77 77 77 77 78 79 81 80 78 77 77 79 78 78 79 80 83 88 89 88 88 88 88 87 85 83 82 81 80 78 75 73 72 70 65 61 56 52 55 58 58 59 61 61 61 62 63 63 61 61 62 58 59 63 59 62 59 52 61 67 64 68 72 71 65 56 54 51 43 41 39 36 38 39 40 42 41 36
85 82 79 77 75 73 73 73 72 72 71 71 71 72 73 75 76 76 75 74 74 77 79 80 81 81 83 89 92 89 88 89 89 88 86 83 82 83 81 79 78 75 72 69 66 62 58 57 60 62 60 58 59 61 61 61 61 62 60 59 59 58 61 63 60 63 61 52 59 65 62 65 69 69 64 56 54 51 44 42 39 37 38 40 39 37 35 34
81 77 74 72 70 69 69 68 68 67 66 67 66 67 68 70 71 70 70 69 69 76 82 81 81 83 85 90 91 88 88 89 89 89 88 84 84 84 82 81 79 75 72 71 69 65 61 62 63 62 61 60 59 60 59 60 61 62 60 57 58 59 60 61 62 65 59 50 55 63 62 63 66 68 63 57 55 52 46 43 40 38 39 40 41 38 34 33
76 73 70 68 67 66 65 64 63 62 62 62 61 63 64 65 66 66 65 63 64 73 80 79 80 84 87 89 90 89 88 88 90 91 89 86 86 85 84 82 79 76 75 74 72 68 64 64 63 62 62 61 60 59 59 61 62 61 58 56 57 60 60 61 66 65 55 49 55 63 63 61 65 66 62 58 56 53 49 45 41 40 40 42 43 39 37 37
73 70 67 65 62 61 61 60 58 57 57 56 57 58 59 60 61 61 60 58 61 71 74 73 77 82 87 89 88 88 87 88 91 92 90 89 88 87 85 82 80 78 77 77 75 69 66 65 64 64 64 62 60 58 59 62 62 60 58 57 59 62 63 63 65 62 52 49 55 61 61 60 63 63 60 59 57 55 52 47 43 42 44 46 45 43 42 44
69 66 63 61 58 57 57 56 54 53 51 51 52 53 54 55 56 57 55 55 60 66 65 66 73 78 86 90 87 86 87 89 92 92 92 92 92 90 86 83 81 79 79 78 74 69 69 69 66 66 65 62 60 59 60 62 61 60 61 60 62 64 63 62 64 62 55 52 54 58 59 59 59 58 60 61 58 56 52 48 45 44 46 47 47 46 48 51
65 62 59 58 56 54 52 52 51 49 46 47 48 49 50 49 51 52 50 52 58 60 60 64 69 73 81 86 85 86 87 89 92 94 94 94 93 91 88 85 84 83 82 78 74 73 73 71 68 68 65 62 61 61 62 61 58 61 63 62 63 65 63 63 65 62 57 53 52 56 56 54 54 56 60 60 57 55 51 49 48 47 48 47 46 49 52 54
62 59 57 54 52 50 49 48 47 45 43 43 44 45 46 45 46 45 43 50 56 57 58 62 64 68 74 80 83 86 87 89 93 96 95 94 94 93 90 89 87 86 84 81 79 77 75 72 71 69 65 64 63 65 65 60 58 63 65 62 63 63 63 64 64 62 58 51 49 52 52 51 52 56 60 59 55 54 53 53 51 48 49 49 49 54 55 55
60 56 54 51 50 48 46 44 42 41 40 39 39 40 42 42 41 41 43 49 53 51 53 55 58 62 68 73 78 83 87 90 92 94 93 93 95 94 91 90 88 87 86 83 81 79 77 76 73 68 66 68 69 68 66 59 58 64 64 62 62 63 64 65 63 60 54 44 42 47 50 50 52 56 59 57 54 55 56 57 53 49 49 51 54 57 57 57
57 54 51 48 46 45 43 40 37 36 36 35 35 35 37 38 38 40 45 48 47 46 47 48 52 57 62 68 72 76 81 85 88 91 92 93 94 94 92 90 88 87 86 83 82 81 81 78 73 70 71 72 69 65 62 59 60 64 64 63 64 64 64 63 59 55 47 37 38 46 50 51 52 56 59 57 55 56 59 58 54 53 52 51 54 59 59 61
54 50 47 44 43 41 38 36 34 33 31 31 32 32 33 34 35 38 41 43 43 42 40 41 46 53 58 63 68 70 74 77 81 87 90 92 94 94 93 92 90 89 87 85 85 85 83 78 75 75 73 70 67 62 61 62 62 62 63 64 63 62 61 59 55 50 44 40 42 49 53 51 52 55 57 57 57 59 60 59 57 57 55 52 54 59 62 64
51 47 44 41 40 38 35 33 31 29 28 28 29 29 30 31 32 34 36 39 39 37 37 39 43 48 53 59 64 67 70 71 73 79 85 88 91 92 91 91 90 89 89 89 88 85 82 78 75 75 72 67 66 63 62 64 61 59 63 66 64 60 58 56 53 48 45 45 46 52 54 49 48 52 54 56 60 62 62 60 60 60 56 53 55 58 61 65
48 45 42 39 37 34 31 29 28 26 25 25 25 26 27 27 29 30 32 34 33 33 35 37 40 44 48 54 59 63 67 67 68 73 78 81 85 87 88 88 88 89 89 88 86 83 82 78 75 74 71 66 65 63 62 64 61 59 65 66 62 57 55 55 54 52 51 51 52 56 53 45 46 51 55 58 62 64 63 62 62 60 55 54 56 56 58 63
46 43 39 36 33 30 27 25 23 22 22 21 22 22 23 23 25 26 28 29 28 30 33 36 40 43 46 50 55 60 63 63 66 70 72 75 79 82 83 85 86 88 87 86 84 83 82 80 76 75 71 63 63 63 64 65 62 62 66 62 56 56 57 57 56 54 53 54 54 53 48 44 46 52 57 60 63 64 63 61 61 58 55 54 55 56 59 62
43 39 36 32 29 26 23 19 18 18 18 18 18 19 19 19 21 23 25 25 25 27 30 35 40 43 45 48 51 55 57 59 62 66 69 70 72 74 77 80 83 85 85 84 83 82 82 80 77 76 71 64 63 66 68 68 64 61 60 57 57 60 59 57 55 54 53 52 51 49 45 44 46 52 59 60 61 63 61 60 59 58 57 57 56 58 61 63
41 37 33 29 26 22 18 15 13 13 14 15 15 15 15 17 19 20 21 22 23 25 29 35 39 41 43 44 45 48 51 54 57 61 64 66 67 69 72 75 78 80 82 82 81 81 81 80 78 75 71 68 68 71 71 68 61 57 59 61 60 58 56 55 53 52 51 49 48 46 45 45 46 52 58 56 57 61 60 58 58 57 57 58 59 61 64 64
41 37 32 29 25 22 18 14 12 11 11 11 11 12 12 14 16 18 18 20 23 26 30 35 38 39 40 41 42 43 45 50 54 58 60 61 63 66 69 70 72 76 79 78 77 78 79 81 78 73 72 72 73 74 71 65 59 59 63 61 54 53 55 54 50 49 50 49 47 46 45 45 46 53 57 54 56 61 60 56 56 59 61 62 63 64 65 65
41 37 33 29 26 24 20 15 12 9 8 8 8 9 9 11 13 16 18 21 26 29 31 33 35 36 37 38 38 40 42 47 52 55 56 59 61 64 66 67 69 72 74 74 75 77 78 79 76 73 73 74 73 71 66 62 61 60 59 53 49 52 55 52 49 50 49 48 46 46 45 44 46 53 55 53 56 60 59 56 58 64 66 65 64 64 63 63
41 37 33 29 27 25 20 15 11 6 4 5 6 8 10 12 15 18 21 24 27 29 29 30 31 33 34 35 37 39 41 44 47 50 54 57 59 61 62 63 67 70 71 71 74 75 75 75 73 72 72 70 68 67 64 62 61 59 56 51 50 53 53 50 48 47 46 46 45 45 45 43 46 51 53 54 57 59 59 57 59 66 68 65 63 63 62 61
38 35 31 28 25 22 17 13 8 3 2 4 6 10 13 16 18 20 22 24 26 27 28 29 30 32 34 35 35 37 38 39 43 47 51 53 55 58 59 62 65 67 67 69 70 71 71 72 70 67 66 66 67 67 64 62 60 59 56 53 52 54 51 46 43 44 47 47 45 46 45 44 46 49 52 57 59 58 59 59 59 67 69 65 62 60 59 60
34 31 28 25 21 17 13 9 5 1 4 6 8 11 14 16 19 21 21 23 24 25 26 28 30 32 32 32 32 33 34 37 41 44 46 49 52 55 58 60 62 63 65 67 68 69 69 69 67 63 63 67 68 66 64 63 62 59 55 52 53 53 49 45 47 50 50 48 47 47 46 44 45 48 52 59 61 57 58 60 61 66 67 63 59 59 58 59
31 28 25 22 18 15 11 7 4 3 5 6 9 12 14 16 19 20 21 22 24 26 27 29 30 30 29 29 29 30 32 35 37 38 41 45 49 51 54 57 59 61 63 64 65 65 65 64 63 59 60 64 65 63 62 61 57 53 52 52 52 51 52 53 55 54 50 49 49 49 48 46 47 51 55 58 60 57 57 61 62 63 65 62 60 62 61 61
29 26 24 21 17 14 10 7 6 6 7 7 9 12 13 15 17 18 20 22 25 27 28 28 28 28 27 27 27 28 30 32 32 33 37 42 45 47 50 54 57 59 61 63 63 63 62 61 57 53 54 57 57 54 53 53 51 50 51 53 52 53 55 55 54 52 50 50 51 51 50 48 46 51 55 57 57 57 59 62 61 60 62 64 63 63 62 62
30 27 24 20 17 13 10 10 10 8 8 10 11 13 14 16 18 20 22 24 25 26 26 25 25 25 25 25 26 27 27 29 31 32 35 38 40 44 48 52 56 59 60 61 61 59 58 56 52 50 52 54 55 54 53 54 52 49 50 51 52 54 55 53 51 50 49 50 52 51 50 48 46 49 54 55 55 55 59 62 60 58 59 62 62 61 62 62
31 27 23 19 16 12 10 11 11 11 11 13 16 18 19 21 22 24 25 26 26 26 25 25 24 24 24 24 25 26 26 27 30 32 33 35 38 43 48 52 55 56 56 55 54 53 51 51 49 51 54 57 58 57 56 55 52 50 51 54 54 54 54 53 50 48 49 50 50 51 50 48 48 50 54 56 54 54 57 60 59 55 54 57 59 60 61 62
29 25 22 18 15 12 11 13 14 14 14 18 20 22 24 25 25 26 27 27 26 25 24 24 24 24 24 24 24 25 25 26 27 29 32 35 40 45 48 51 52 52 51 50 49 48 48 48 50 53 58 59 58 56 55 54 53 52 55 56 54 53 53 51 48 47 49 49 48 51 52 49 49 51 54 56 55 55 56 57 57 55 52 54 58 58 58 60
27 23 20 16 13 13 13 15 17 17 18 21 23 25 26 27 27 26 27 26 26 25 24 24 24 24 24 24 23 24 25 26 27 29 31 34 39 43 46 48 49 48 48 48 48 49 50 51 54 57 59 59 58 57 55 55 54 55 57 56 53 52 53 51 48 48 50 49 48 51 52 50 50 52 53 55 57 58 57 56 58 58 53 51 56 57 58 60
24 20 17 14 13 14 15 17 19 19 20 22 25 26 27 27 27 27 27 27 26 25 25 25 24 24 24 24 23 24 25 27 28 29 31 33 37 40 43 45 46 47 48 48 50 51 52 54 57 59 58 58 57 56 53 53 55 56 56 55 53 53 54 53 51 52 52 51 50 51 52 51 50 49 51 55 58 60 58 56 59 61 56 52 53 56 59 62
21 17 13 12 13 15 17 18 20 21 21 23 25 26 27 27 28 28 28 27 27 27 26 26 25 25 26 26 25 25 25 26 27 29 31 33 36 38 41 43 45 47 49 49 51 53 54 55 56 55 54 54 54 52 51 52 54 54 54 53 52 52 53 52 52 53 52 50 51 51 51 50 48 48 52 56 58 60 60 58 60 63 60 56 54 54 58 61
18 13 11 11 13 16 18 20 20 21 23 24 25 27 28 28 28 29 29 29 29 29 28 27 27 26 28 29 28 28 27 26 25 27 29 32 34 36 39 41 44 47 49 51 52 52 51 52 52 50 50 51 51 50 51 52 52 50 50 49 49 50 51 51 52 52 50 50 51 51 50 49 50 51 52 55 57 59 60 60 61 63 61 58 55 55 57 59
Wind_Direction
278 278 278 279 280 280 278 277 276 275 274 273 272 272 272 271 271 270 270 269 268 267 265 263 261 259 258 257 255 254 253 252 251 251 251 250 249 248 248 246 245 245 245 245 244 244 243 243 243 243 244 244 244 244 244 245 245 247 248 248 248 248 248 248 248 248 249 249 249 247 246 247 249 254 255 255 255 255 255 254 256 257 258 261 260 261 263 264
279 278 278 279 280 279 278 276 275 273 272 271 271 270 270 269 269 269 268 268 268 267 267 266 264 262 260 258 256 255 254 253 251 251 251 250 249 249 249 248 246 246 245 245 244 244 243 243 243 243 243 244 244 244 244 244 245 246 247 247 248 248 247 247 247 248 248 247 249 247 247 250 252 252 251 252 253 253 256 256 256 258 259 261 261 261 262 265
280 280 279 279 280 279 278 276 275 274 273 271 270 269 268 268 267 267 267 266 266 266 266 266 266 265 262 260 258 256 255 254 252 251 251 251 249 249 250 249 248 247 246 245 245 244 244 243 243 243 243 243 244 244 244 244 244 245 246 246 246 246 246 246 246 247 247 248 251 251 248 249 250 250 249 250 253 254 257 257 257 258 259 261 262 262 263 265
283 282 281 281 280 280 279 277 276 276 274 273 271 270 269 268 267 266 265 265 264 264 264 264 264 265 264 262 259 257 256 255 253 252 252 251 250 249 250 250 249 248 247 246 245 245 244 244 243 243 243 243 243 243 244 244 244 244 245 245 245 245 245 246 246 246 248 250 252 252 247 245 248 250 250 250 254 255 256 257 257 257 258 260 262 263 265 266
285 284 282 281 280 279 279 278 277 276 275 275 273 272 270 268 267 266 265 264 263 263 262 262 262 262 263 263 261 258 257 256 254 254 254 252 250 250 249 249 249 248 248 247 247 246 245 244 244 243 242 243 243 243 243 244 243 243 244 243 243 244 244 245 246 246 249 251 251 250 247 245 247 250 251 251 253 255 256 257 258 257 258 261 262 264 266 267
285 284 283 281 280 279 278 277 276 276 275 274 273 272 271 270 268 266 265 264 263 262 261 260 260 260 260 261 261 259 257 257 255 255 254 252 251 250 249 249 249 248 248 248 247 247 246 245 245 244 243 242 242 242 243 243 243 242 243 243 243 243 243 244 245 246 248 249 249 249 248 246 246 249 251 252 252 253 254 256 258 258 258 261 263 265 266 267
285 283 282 281 280 279 277 276 276 275 274 273 272 271 270 270 269 267 266 264 263 262 260 259 259 258 258 258 258 258 258 258 255 254 255 254 252 251 250 249 248 248 249 249 248 247 246 246 245 245 244 243 242 242 242 242 243 242 242 243 243 243 243 244 245 246 246 247 248 248 249 247 247 249 250 251 251 252 253 255 258 258 258 262 264 265 267 268
284 283 281 280 279 277 276 275 275 274 273 273 272 270 269 268 268 267 266 265 263 262 260 259 258 257 257 256 256 257 257 256 254 253 254 254 253 252 251 250 249 249 249 248 248 248 247 246 246 246 245 244 243 242 242 242 242 242 242 243 243 243 244 244 245 245 244 246 248 248 248 248 248 248 248 249 251 252 253 254 256 257 259 262 263 264 265 265
286 284 282 280 278 277 275 274 274 273 273 272 271 270 269 268 267 266 265 264 264 262 261 259 258 257 256 255 254 254 255 255 253 251 252 253 253 252 252 251 250 249 249 248 248 248 248 247 247 246 245 244 244 243 243 242 242 242 241 242 243 244 244 245 245 245 244 245 247 247 247 248 247 247 247 249 250 252 253 253 255 256 257 258 259 261 262 263
287 285 283 281 279 277 276 274 273 272 272 271 271 270 269 267 266 265 264 263 263 262 261 260 258 257 256 254 253 254 253 252 251 249 251 253 253 253 252 252 251 250 250 249 248 248 248 247 246 245 245 245 245 244 244 243 242 241 241 241 242 243 245 245 245 246 245 245 247 247 247 247 247 247 247 248 249 250 252 253 254 256 255 255 258 260 261 263
287 285 283 281 279 277 276 274 273 271 270 270 269 269 269 268 266 264 263 262 261 260 260 260 258 257 256 254 253 253 252 250 249 248 249 251 251 252 252 251 251 250 250 249 249 248 247 247 247 246 246 246 246 245 245 244 243 242 241 241 242 243 244 245 245 245 246 245 246 247 246 246 247 247 247 247 248 249 252 253 255 255 254 255 258 260 261 263
288 285 283 281 279 277 275 274 272 271 270 268 268 267 267 267 267 265 263 261 260 259 258 258 258 257 256 255 253 252 251 249 248 247 247 249 249 250 251 251 250 250 250 250 249 249 248 247 247 247 247 246 246 245 245 245 244 243 242 242 242 242 242 243 244 244 244 245 245 246 245 245 246 246 246 246 247 249 251 253 254 254 254 255 256 258 260 262
289 286 283 281 279 277 275 274 272 270 269 267 266 266 265 266 266 265 264 262 260 258 257 256 256 256 255 255 253 251 250 248 247 247 247 248 248 248 249 249 249 249 249 250 250 249 249 248 248 247 247 247 246 246 246 246 245 245 244 242 242 243 242 242 243 243 243 244 244 245 245 245 246 246 245 246 247 249 250 252 253 253 254 256 257 257 258 260
289 286 283 281 278 276 275 273 272 270 268 267 266 265 264 263 263 263 263 262 260 259 257 255 254 254 254 254 253 251 250 248 247 247 246 246 246 247 247 247 248 248 249 249 249 249 249 249 248 247 247 247 247 247 246 246 246 246 245 243 243 244 243 242 242 242 242 243 244 245 244 244 245 245 245 246 247 248 249 251 253 253 254 254 255 256 257 260
291 287 284 281 278 276 274 272 270 269 268 266 265 264 263 262 261 261 261 261 260 259 257 255 254 252 251 252 252 251 249 248 247 247 246 245 246 247 247 247 247 247 248 248 249 248 249 249 249 248 247 247 247 247 246 246 246 246 247 245 244 244 243 241 241 241 241 241 242 243 243 243 244 244 244 245 246 247 248 250 252 252 251 252 254 256 257 259
292 288 285 282 279 277 274 272 270 268 267 266 264 263 262 261 260 259 259 259 259 258 257 256 254 251 249 250 251 251 248 246 246 246 246 245 245 246 246 246 246 246 247 248 248 248 248 248 249 248 248 247 247 248 247 246 246 247 249 247 245 244 243 241 241 241 240 240 241 242 242 241 243 242 242 245 246 246 247 249 251 251 250 252 254 255 255 256
293 290 287 284 281 278 276 274 272 270 268 267 265 263 262 260 259 258 257 257 257 257 257 256 255 252 248 247 249 250 248 246 245 246 245 244 244 244 245 245 245 246 246 246 247 248 248 248 248 249 249 248 248 248 248 248 249 249 248 248 245 244 243 242 241 240 239 240 240 240 240 240 242 241 241 244 245 245 247 248 249 249 249 247 248 251 251 253
296 292 289 286 283 281 278 276 274 272 270 268 266 265 263 261 260 258 257 256 256 256 256 255 255 251 247 245 247 248 247 246 244 244 243 243 243 243 243 244 244 244 245 246 247 248 249 249 248 248 249 249 249 249 250 250 249 247 246 245 244 243 243 243 242 240 239 240 239 238 239 238 240 241 241 243 244 245 246 247 247 247 247 243 243 246 244 247
297 294 291 288 286 283 281 279 276 274 272 270 268 266 264 262 260 259 257 256 256 255 255 254 253 251 246 244 245 246 246 245 243 242 242 241 242 242 242 243 243 243 244 245 247 249 250 249 248 249 250 252 251 250 249 247 245 245 243 243 243 243 243 243 244 241 237 239 240 237 237 237 238 240 240 240 241 243 243 244 246 245 243 238 234 236 237 240
299 296 293 290 288 286 283 281 278 276 274 271 269 267 265 263 262 260 258 257 256 255 253 252 250 249 246 243 243 244 244 243 243 242 241 241 241 241 242 242 243 243 243 245 247 248 248 249 250 250 249 249 248 246 245 245 243 243 242 242 243 243 243 243 244 243 236 237 240 236 235 236 237 239 239 236 237 242 242 242 243 240 235 230 223 224 229 234
300 296 294 291 289 286 284 282 280 277 275 272 270 268 266 264 262 260 259 257 256 254 253 251 248 246 245 242 241 242 242 242 242 241 240 240 240 240 241 242 243 243 243 244 245 246 247 250 252 251 247 245 245 243 242 242 241 242 241 241 242 242 243 242 243 244 238 235 240 237 233 236 237 238 238 234 235 240 240 238 237 234 230 227 223 222 226 233
300 297 294 292 289 287 284 282 279 277 274 272 270 267 265 264 262 260 258 256 255 254 252 250 247 244 243 242 239 239 240 240 241 241 239 238 238 239 240 241 242 242 241 241 243 245 248 249 251 250 248 244 243 243 242 241 240 241 241 240 241 241 243 242 242 246 241 233 238 237 231 234 236 236 236 232 233 237 236 234 233 230 227 224 223 224 229 237
301 298 295 292 290 287 284 281 279 276 274 272 269 267 264 262 261 259 257 254 253 252 251 249 247 243 240 240 239 237 238 239 239 240 238 237 237 238 238 239 240 240 240 240 242 245 246 246 246 247 247 245 242 242 241 241 241 242 241 241 242 241 242 244 242 245 242 230 234 237 231 232 235 235 235 231 232 234 231 231 230 225 223 218 216 219 221 223
302 299 297 294 291 288 285 282 279 277 274 272 269 266 264 262 260 258 256 253 250 250 249 246 245 243 240 239 238 236 235 237 238 238 238 237 237 237 238 238 239 239 239 240 241 242 242 242 242 243 245 245 242 240 240 241 241 242 242 242 243 241 241 244 242 242 241 232 234 238 233 232 234 235 233 230 231 231 227 228 227 221 219 215 212 213 209 203
304 301 298 296 292 289 286 283 280 278 275 272 269 267 264 262 260 258 256 252 248 247 246 243 242 242 240 238 238 236 234 235 236 237 237 236 236 236 236 237 238 238 239 239 239 240 240 241 242 243 244 245 243 240 239 239 239 240 241 240 241 241 240 243 243 241 240 234 234 237 234 230 232 233 231 227 228 229 225 224 224 218 213 210 211 208 198 194
305 303 300 297 293 290 287 284 281 278 275 272 270 266 264 262 260 258 255 252 247 244 243 241 239 238 239 238 237 236 234 233 234 235 235 235 235 235 235 236 237 237 237 237 238 238 239 241 243 244 245 245 245 242 238 237 238 239 240 239 239 240 238 239 242 242 239 234 233 235 234 230 230 231 228 225 225 226 223 219 219 216 208 206 205 197 191 197
307 304 301 298 295 292 288 285 282 278 275 272 269 266 263 261 259 257 255 251 246 243 241 239 237 236 237 238 236 235 234 233 233 234 234 234 234 234 234 235 235 236 236 236 237 237 239 240 241 243 244 244 245 244 239 238 238 238 238 237 237 238 238 238 241 242 238 233 233 235 235 231 229 230 227 224 222 222 221 215 214 214 209 205 199 193 197 205
308 305 303 299 296 293 290 287 283 279 276 273 269 266 262 260 258 256 254 250 245 243 241 238 236 234 235 236 235 234 233 233 233 232 232 233 233 233 233 233 234 234 235 236 237 237 238 239 239 241 243 244 245 244 241 238 238 238 236 235 235 237 237 237 240 241 236 231 231 234 235 232 229 229 227 224 221 221 221 216 211 211 210 204 196 196 204 206
309 307 304 301 298 294 290 287 284 281 278 273 269 266 263 260 258 255 253 249 245 242 238 235 233 232 233 234 234 233 231 231 232 232 231 231 232 232 232 232 232 232 233 234 234 235 237 238 238 239 241 242 242 243 242 237 235 236 235 234 235 236 237 237 238 239 237 232 232 234 235 233 230 228 226 224 220 220 221 217 212 208 207 203 199 202 206 208
311 309 306 303 299 295 292 288 285 283 278 272 268 265 263 260 257 255 251 246 243 240 236 233 231 230 230 231 232 232 231 230 230 231 231 231 232 232 231 231 231 232 232 232 233 234 235 236 237 237 239 239 238 239 241 237 232 234 235 233 235 237 237 237 238 239 238 234 233 237 237 233 229 227 226 223 218 217 218 217 213 208 206 203 204 207 208 214
313 311 307 304 300 297 293 290 288 284 279 273 268 264 262 258 255 251 246 242 241 238 235 232 230 228 228 229 229 230 230 229 229 230 231 230 232 233 233 233 233 233 234 233 234 235 235 236 237 237 238 238 238 239 241 238 233 234 235 234 234 236 237 238 238 240 240 237 237 241 239 234 229 226 224 221 216 215 217 217 212 209 207 202 204 210 213 220
315 312 309 306 302 299 296 294 290 285 280 274 269 263 259 255 250 245 243 241 239 237 233 230 227 226 226 227 227 228 229 229 228 229 230 230 231 232 233 234 234 235 236 236 236 236 236 236 237 237 237 238 239 241 243 240 235 233 234 234 234 235 238 240 240 241 242 239 237 240 238 233 226 224 223 219 214 214 217 217 212 210 208 202 204 211 215 221
316 313 311 309 305 302 300 298 293 286 281 276 270 264 258 254 249 244 242 242 239 235 231 227 224 224 223 224 225 226 227 228 227 228 229 229 230 231 231 231 232 233 234 234 234 235 236 236 236 236 236 239 240 240 241 241 238 236 236 237 237 237 239 242 242 242 241 236 233 235 235 230 223 222 222 217 213 213 215 215 213 211 208 203 204 209 213 218
319 317 316 313 309 306 304 300 294 289 282 276 269 263 257 252 248 244 241 240 238 233 228 224 221 220 220 221 223 223 224 225 225 226 227 228 229 230 230 231 231 231 232 232 232 233 235 235 236 237 238 238 239 239 239 240 239 237 236 236 237 237 238 241 241 238 236 232 230 232 233 228 222 221 220 216 214 213 213 214 214 212 206 203 205 208 211 214
322 321 319 315 312 309 306 300 295 289 281 272 265 259 254 249 245 242 239 238 236 230 224 220 218 217 217 218 220 221 222 221 221 223 225 225 227 228 229 230 230 231 231 232 232 233 233 233 233 235 236 236 237 238 238 239 238 235 235 234 235 236 237 238 237 233 230 228 227 229 230 225 219 217 216 215 214 213 213 214 215 213 206 204 207 210 213 216
325 323 320 317 314 310 306 301 295 287 278 269 261 254 249 244 240 237 235 232 230 224 219 216 215 214 214 215 216 218 220 218 217 219 221 222 224 224 225 226 228 229 230 230 231 232 233 232 231 232 232 231 234 235 234 236 235 234 235 235 234 235 233 233 234 232 231 230 229 230 229 224 217 214 215 215 215 214 212 214 216 213 207 206 209 212 216 220
328 326 324 321 318 314 309 303 294 284 274 265 258 251 244 237 231 229 228 224 219 216 214 212 212 211 212 212 213 215 217 216 216 217 218 219 221 222 222 223 224 226 228 228 228 229 231 231 231 231 230 226 228 230 230 233 233 233 235 234 231 231 231 230 232 232 232 232 233 233 231 225 217 215 217 215 215 215 211 213 216 213 208 207 208 212 216 221
332 332 331 329 327 324 319 312 299 287 274 265 257 249 239 230 223 219 217 213 206 205 207 209 210 210 210 211 211 213 213 213 214 216 217 216 217 219 220 221 222 223 225 225 226 227 228 229 228 228 228 225 225 228 229 231 233 232 232 230 228 229 232 232 233 234 234 233 233 233 232 227 217 216 218 215 215 216 210 211 215 214 211 210 209 211 215 219
339 339 338 338 337 335 333 326 313 297 278 266 256 244 232 223 216 208 203 200 194 194 201 205 207 206 207 208 208 210 211 210 211 213 215 214 215 216 217 218 219 221 223 223 223 225 226 227 226 224 225 224 225 228 230 231 231 230 231 230 228 228 231 232 231 232 233 232 232 231 231 227 217 215 218 213 214 217 211 209 214 213 212 212 211 212 214 217
343 342 342 343 342 339 338 332 322 306 279 257 241 227 213 206 204 193 187 188 189 191 197 201 203 202 202 204 205 205 207 208 208 209 210 211 212 213 214 214 215 218 220 220 220 222 224 225 224 221 222 224 226 229 231 230 230 230 232 231 228 228 230 230 229 230 232 232 231 230 230 226 217 215 216 210 213 218 212 208 214 214 211 213 213 212 213 217
344 343 344 345 343 339 336 332 326 311 270 234 211 196 182 179 183 182 181 185 188 190 192 195 196 196 196 199 201 202 203 205 207 207 207 208 208 210 211 211 213 215 216 217 218 219 221 224 223 221 222 224 225 227 228 228 229 230 229 226 224 226 229 229 230 231 232 232 231 231 229 225 219 216 214 209 211 217 213 209 215 217 212 211 214 214 213 216
344 344 344 344 342 338 334 332 326 299 199 180 181 178 172 171 175 178 181 184 185 186 186 187 187 188 191 194 198 201 201 200 203 205 207 206 206 207 207 209 211 212 213 214 216 217 219 222 222 220 220 222 223 224 225 226 227 227 226 221 220 224 227 228 230 230 231 230 230 229 228 224 220 216 213 211 210 213 214 210 214 219 214 209 214 216 216 217
346 346 347 346 343 339 341 346 338 288 150 152 166 169 168 170 171 172 176 178 179 179 178 178 180 183 187 191 194 197 197 198 200 203 204 204 204 204 204 205 208 210 210 211 213 214 216 219 220 218 217 219 221 221 221 223 225 225 224 221 220 223 223 223 224 225 225 226 226 226 225 223 218 213 213 212 208 210 215 214 215 220 216 210 213 218 219 221
351 353 353 353 353 352 356 10 27 80 119 143 160 160 163 168 168 167 170 171 170 169 169 172 175 178 182 186 188 191 193 195 198 200 201 201 203 203 202 204 205 206 208 210 211 212 214 217 218 215 215 219 221 221 222 224 225 224 223 221 220 221 221 220 221 222 220 221 223 223 222 220 216 213 214 213 208 207 214 216 216 219 218 214 215 217 219 223
358 1 2 3 7 9 14 33 57 82 111 133 146 148 153 159 158 158 161 162 162 164 166 168 171 174 177 180 182 185 189 190 191 195 199 200 200 199 200 201 202 203 205 207 208 209 211 214 214 212 213 217 221 223 225 227 227 223 222 220 218 219 222 223 224 224 221 221 223 223 220 218 215 215 216 214 208 207 213 217 216 218 219 217 217 219 220 223
4 6 7 10 16 22 35 56 69 84 107 123 129 133 138 143 145 147 149 152 154 157 159 162 165 169 172 175 176 180 184 185 184 188 195 198 196 195 196 198 200 202 203 204 206 206 207 209 208 205 207 212 215 216 218 222 222 219 219 219 218 219 223 224 225 225 224 223 224 226 223 218 214 213 215 214 208 206 213 218 217 218 220 220 218 220 222 224
7 7 7 14 22 29 46 70 84 96 110 118 123 127 131 134 137 139 141 144 146 149 153 157 160 162 165 169 172 174 177 181 180 182 188 192 190 190 193 195 198 200 201 202 203 204 205 205 202 201 203 208 212 214 214 216 216 213 214 217 217 219 222 223 223 224 225 225 225 227 227 220 215 211 212 213 208 205 212 217 216 216 221 224 223 222 225 226
6 6 9 17 27 39 57 77 90 102 115 121 124 126 129 131 133 135 138 140 143 146 150 153 154 157 160 163 167 168 170 172 174 178 183 186 187 188 191 193 196 197 198 198 199 200 201 202 201 202 204 208 212 214 214 214 212 209 212 216 216 218 222 224 223 223 226 225 223 226 227 223 217 212 210 212 208 205 210 215 213 210 214 222 225 224 225 229
5 7 15 25 40 58 76 89 98 108 117 121 124 126 128 129 131 134 136 137 139 142 146 147 150 153 154 156 159 162 163 164 168 175 180 183 187 189 190 192 194 194 194 194 196 198 199 200 201 204 207 209 212 213 211 211 210 209 212 215 215 217 220 222 222 222 225 225 222 224 228 225 219 214 211 212 209 206 209 212 210 207 207 217 224 224 222 226
6 12 25 40 58 76 89 99 105 111 117 121 124 126 127 128 130 132 133 135 136 139 141 143 145 147 147 149 152 156 159 161 164 170 176 181 186 189 189 190 191 192 193 193 195 198 200 201 204 206 209 211 213 213 210 209 211 211 213 215 215 217 219 220 220 222 223 224 223 223 226 226 222 216 211 211 211 209 209 211 209 207 208 214 222 224 223 223
10 18 35 55 74 88 97 104 109 114 117 120 123 125 126 128 130 131 132 133 135 136 137 139 142 144 144 145 148 151 154 158 162 167 173 178 184 188 190 190 190 192 194 194 197 200 201 204 208 210 211 212 212 212 210 211 214 214 215 217 217 219 221 222 223 225 225 225 225 224 225 225 223 217 211 210 212 211 210 210 209 210 213 217 221 224 225 225
13 23 45 71 89 99 105 109 112 116 119 122 124 126 127 129 131 132 132 132 134 134 134 136 139 143 146 147 148 150 151 154 162 168 172 176 181 185 188 190 192 193 195 197 200 203 203 206 209 210 210 211 210 210 211 213 216 217 218 220 220 221 223 223 225 227 227 227 227 226 224 223 221 217 211 210 212 212 211 211 210 212 217 221 223 225 227 227
Height
10669 10668 10666 10665 10664 10663 10662 10660 10659 10658 10657 10657 10656 10655 10654 10654 10654 10653 10653 10652 10652 10651 10651 10651 10651 10650 10649 10650 10652 10655 10656 10657 10661 10663 10663 10664 10670 10672 10667 10672 10675 10677 10681 10682 10686 10689 10692 10695 10698 10700 10703 10707 10711 10714 10717 10720 10722 10724 10730 10737 10745 10750 10752 10752 10752 10750 10754 10756 10752 10766 10781 10788 10795 10793 10793 10789 10788 10788 10783 10794 10792 10793 10805 10806 10815 10816 10810 10815
10664 10662 10660 10659 10657 10656 10655 10654 10652 10651 10650 10650 10649 10648 10647 10647 10647 10646 10646 10646 10646 10646 10645 10645 10644 10643 10642 10642 10645 10648 10648 10650 10654 10655 10656 10657 10662 10662 10660 10664 10668 10670 10672 10673 10677 10680 10684 10686 10689 10692 10695 10699 10703 10706 10708 10712 10715 10719 10724 10730 10740 10743 10744 10743 10743 10743 10745 10745 10740 10762 10786 10790 10792 10785 10783 10781 10780 10780 10778 10788 10786 10792 10805 10802 10808 10810 10808 10813
10658 10656 10654 10652 10650 10649 10648 10647 10645 10644 10643 10643 10642 10641 10640 10640 10640 10639 10639 10639 10639 10639 10639 10639 10638 10637 10636 10636 10639 10640 10641 10643 10646 10648 10649 10649 10654 10656 10655 10657 10660 10663 10663 10665 10668 10672 10676 10678 10681 10684 10688 10691 10695 10697 10699 10704 10709 10713 10716 10725 10734 10733 10733 10733 10735 10734 10733 10739 10743 10766 10786 10782 10778 10771 10774 10777 10773 10776 10777 10781 10782 10791 10802 10799 10802 10804 10807 10811
10651 10649 10647 10645 10644 10642 10640 10639 10638 10637 10636 10635 10635 10634 10633 10633 10632 10632 10632 10632 10632 10632 10632 10633 10632 10631 10629 10630 10632 10633 10634 10635 10639 10642 10642 10642 10647 10649 10649 10650 10652 10655 10656 10657 10661 10665 10667 10669 10673 10676 10680 10683 10686 10688 10691 10696 10701 10705 10709 10720 10724 10720 10724 10725 10725 10725 10727 10742 10749 10760 10771 10771 10769 10760 10767 10776 10771 10772 10773 10774 10776 10788 10798 10795 10797 10799 10803 10807
10645 10643 10641 10639 10637 10635 10633 10632 10631 10629 10628 10628 10627 10627 10626 10625 10625 10624 10624 10624 10624 10625 10625 10625 10625 10624 10623 10623 10625 10627 10627 10628 10634 10636 10634 10636 10639 10640 10642 10643 10644 10647 10648 10651 10655 10657 10659 10661 10664 10668 10672 10675 10677 10680 10684 10687 10691 10697 10703 10710 10711 10710 10716 10714 10714 10721 10730 10742 10744 10747 10757 10766 10764 10754 10762 10772 10767 10766 10768 10769 10770 10785 10795 10790 10793 10796 10798 10802
10639 10636 10633 10631 10629 10627 10625 10624 10622 10621 10620 10619 10619 10618 10617 10617 10616 10616 10617 10616 10617 10617 10617 10618 10617 10616 10616 10617 10618 10620 10621 10623 10629 10628 10625 10627 10630 10632 10634 10635 10637 10640 10642 10645 10648 10650 10652 10654 10657 10660 10663 10666 10668 10673 10676 10676 10681 10691 10696 10698 10701 10702 10705 10705 10708 10721 10732 10735 10733 10737 10747 10760 10758 10751 10760 10764 10761 10761 10763 10766 10765 10781 10791 10785 10790 10792 10793 10798
10631 10628 10626 10623 10621 10619 10617 10615 10614 10612 10611 10610 10610 10609 10609 10608 10608 10608 10608 10608 10609 10609 10610 10610 10609 10608 10609 10610 10611 10614 10617 10618 10620 10621 10618 10619 10622 10625 10626 10628 10631 10634 10636 10639 10640 10642 10644 10646 10650 10652 10654 10658 10660 10664 10667 10667 10673 10684 10688 10688 10691 10694 10696 10699 10705 10718 10728 10723 10723 10731 10740 10752 10752 10751 10757 10754 10755 10756 10757 10764 10763 10775 10788 10783 10784 10786 10789 10793
10623 10620 10618 10615 10613 10610 10608 10606 10604 10603 10602 10600 10600 10599 10599 10599 10599 10599 10599 10600 10600 10600 10601 10602 10601 10601 10601 10603 10604 10609 10613 10608 10611 10617 10612 10610 10615 10617 10618 10621 10624 10627 10630 10631 10632 10634 10637 10640 10643 10645 10647 10650 10652 10655 10659 10661 10667 10677 10682 10680 10682 10686 10688 10694 10701 10712 10721 10715 10715 10727 10735 10743 10746 10747 10750 10746 10750 10750 10751 10760 10760 10772 10788 10780 10776 10781 10784 10787
10614 10611 10608 10605 10603 10601 10599 10597 10594 10593 10592 10591 10590 10589 10589 10589 10589 10589 10589 10590 10590 10591 10592 10593 10594 10592 10593 10596 10598 10604 10606 10598 10604 10611 10605 10603 10608 10610 10612 10614 10617 10620 10622 10624 10625 10627 10631 10634 10636 10637 10639 10642 10644 10647 10651 10655 10662 10670 10673 10671 10674 10679 10681 10688 10697 10704 10712 10710 10710 10721 10729 10735 10738 10740 10743 10743 10744 10744 10746 10753 10757 10771 10784 10772 10767 10776 10780 10781
10604 10601 10598 10595 10593 10590 10589 10586 10585 10583 10581 10581 10579 10579 10578 10578 10579 10578 10579 10580 10581 10583 10583 10584 10585 10584 10586 10588 10593 10599 10594 10587 10596 10604 10600 10598 10602 10603 10605 10608 10610 10613 10614 10616 10618 10621 10624 10626 10627 10628 10631 10635 10638 10641 10644 10649 10656 10660 10662 10663 10667 10673 10676 10683 10693 10698 10704 10706 10706 10714 10722 10726 10729 10734 10739 10739 10738 10738 10738 10745 10756 10767 10774 10766 10764 10773 10776 10777
10594 10591 10588 10585 10582 10580 10577 10575 10574 10572 10570 10570 10568 10568 10567 10567 10568 10568 10569 10570 10571 10573 10573 10575 10575 10576 10578 10581 10589 10590 10577 10578 10591 10598 10596 10593 10595 10597 10598 10602 10603 10604 10607 10608 10611 10614 10616 10617 10618 10621 10626 10630 10632 10635 10639 10643 10648 10651 10653 10658 10663 10667 10672 10678 10686 10691 10695 10699 10701 10706 10713 10718 10722 10728 10734 10732 10730 10732 10733 10741 10754 10762 10765 10763 10764 10770 10772 10775
10583 10580 10576 10573 10570 10568 10565 10563 10562 10560 10559 10557 10557 10556 10555 10556 10556 10557 10558 10558 10560 10562 10563 10564 10565 10568 10570 10575 10584 10574 10562 10575 10585 10588 10589 10586 10589 10591 10591 10594 10595 10597 10600 10601 10604 10606 10608 10610 10612 10616 10621 10623 10625 10629 10632 10636 10641 10643 10646 10655 10658 10659 10666 10673 10678 10683 10686 10691 10694 10697 10704 10712 10716 10722 10725 10721 10723 10729 10731 10737 10748 10756 10759 10759 10763 10767 10768 10772
10571 10568 10564 10561 10558 10555 10552 10551 10549 10548 10546 10545 10544 10543 10544 10544 10544 10545 10546 10547 10548 10549 10552 10553 10556 10559 10562 10572 10571 10555 10556 10571 10576 10579 10582 10580 10582 10584 10585 10586 10588 10591 10594 10595 10597 10599 10601 10604 10606 10610 10613 10616 10620 10623 10627 10631 10635 10638 10641 10649 10651 10651 10662 10670 10670 10674 10679 10683 10687 10690 10698 10707 10710 10714 10716 10713 10718 10726 10729 10732 10740 10751 10756 10755 10760 10763 10765 10768
10558 10554 10551 10547 10544 10541 10539 10537 10535 10533 10532 10531 10531 10530 10531 10531 10532 10533 10532 10534 10535 10537 10540 10541 10546 10549 10556 10565 10553 10541 10553 10563 10566 10571 10571 10571 10575 10577 10578 10579 10581 10585 10587 10588 10590 10591 10594 10596 10600 10604 10606 10611 10614 10617 10622 10625 10630 10633 10635 10643 10646 10648 10657 10662 10660 10664 10671 10677 10680 10683 10694 10702 10703 10707 10708 10707 10713 10723 10726 10727 10734 10748 10752 10751 10755 10758 10761 10765
10544 10540 10536 10532 10529 10526 10523 10522 10520 10518 10517 10516 10516 10516 10517 10516 10517 10518 10519 10520 10521 10524 10528 10530 10536 10538 10549 10554 10536 10533 10548 10553 10556 10559 10558 10565 10570 10569 10570 10572 10575 10578 10580 10582 10583 10585 10588 10589 10593 10598 10601 10604 10607 10612 10616 10619 10625 10627 10629 10639 10642 10643 10648 10650 10651 10657 10664 10670 10672 10677 10689 10696 10696 10700 10701 10699 10709 10719 10722 10722 10730 10742 10747 10748 10751 10754 10758 10761
10529 10525 10521 10516 10513 10510 10507 10505 10503 10502 10501 10500 10500 10500 10500 10501 10502 10503 10504 10505 10507 10511 10515 10520 10523 10526 10540 10541 10523 10526 10538 10541 10546 10548 10552 10560 10560 10560 10562 10565 10568 10570 10573 10576 10577 10579 10581 10583 10587 10592 10595 10598 10603 10607 10609 10614 10622 10623 10627 10633 10635 10636 10637 10639 10643 10649 10656 10660 10665 10673 10684 10689 10689 10693 10693 10694 10706 10715 10715 10719 10728 10736 10742 10746 10746 10748 10753 10756
10513 10508 10503 10499 10495 10492 10489 10487 10485 10484 10483 10482 10483 10483 10483 10483 10485 10487 10488 10490 10493 10498 10503 10509 10509 10515 10529 10525 10513 10518 10525 10531 10537 10539 10545 10549 10548 10551 10553 10557 10561 10563 10566 10568 10571 10573 10574 10577 10582 10586 10589 10594 10599 10601 10604 10614 10620 10620 10622 10624 10626 10628 10627 10631 10636 10641 10649 10653 10660 10669 10677 10683 10683 10684 10686 10692 10705 10709 10710 10718 10725 10729 10737 10742 10739 10741 10748 10751
10496 10491 10486 10481 10477 10474 10471 10468 10467 10465 10465 10464 10464 10465 10465 10465 10467 10470 10471 10474 10479 10484 10490 10495 10496 10503 10513 10509 10505 10510 10514 10522 10527 10528 10534 10537 10538 10541 10545 10549 10552 10555 10559 10561 10566 10568 10569 10572 10576 10580 10585 10591 10595 10599 10604 10612 10613 10611 10614 10615 10617 10620 10620 10626 10628 10633 10646 10646 10651 10662 10669 10676 10675 10674 10682 10692 10701 10703 10707 10715 10719 10724 10732 10737 10740 10744 10747 10749
10479 10473 10469 10464 10460 10456 10453 10450 10448 10447 10446 10446 10446 10447 10447 10446 10449 10452 10453 10459 10465 10471 10476 10480 10483 10489 10496 10498 10497 10499 10504 10510 10513 10516 10522 10526 10529 10532 10537 10540 10543 10548 10552 10556 10561 10563 10564 10566 10571 10578 10585 10588 10591 10595 10598 10602 10602 10602 10605 10606 10609 10613 10616 10621 10620 10626 10640 10640 10642 10656 10664 10667 10666 10668 10678 10692 10697 10695 10703 10712 10714 10721 10727 10732 10739 10744 10746 10749
10462 10457 10452 10447 10443 10439 10436 10433 10430 10429 10428 10428 10428 10429 10429 10428 10431 10434 10437 10445 10452 10455 10460 10465 10471 10475 10480 10485 10485 10487 10493 10497 10499 10506 10513 10517 10521 10524 10528 10532 10535 10541 10547 10552 10555 10555 10556 10561 10570 10578 10580 10581 10582 10586 10588 10592 10594 10593 10596 10600 10604 10607 10611 10617 10615 10616 10632 10636 10635 10649 10657 10656 10659 10663 10674 10689 10692 10690 10701 10709 10710 10716 10721 10725 10731 10735 10740 10746
10446 10441 10435 10430 10426 10422 10418 10415 10412 10411 10410 10410 10411 10411 10412 10411 10413 10417 10422 10430 10435 10440 10445 10450 10457 10463 10465 10469 10474 10476 10479 10485 10490 10496 10503 10508 10511 10515 10520 10524 10528 10536 10542 10545 10545 10546 10551 10561 10571 10572 10570 10571 10573 10577 10581 10584 10586 10585 10590 10595 10597 10602 10607 10611 10610 10607 10624 10635 10630 10639 10650 10649 10653 10659 10670 10685 10687 10687 10699 10704 10704 10710 10715 10720 10723 10728 10735 10741
10430 10424 10418 10413 10408 10404 10401 10396 10394 10393 10391 10392 10393 10394 10395 10395 10396 10399 10406 10415 10420 10425 10432 10436 10443 10451 10451 10452 10460 10464 10465 10474 10480 10483 10491 10497 10501 10507 10512 10515 10522 10529 10532 10533 10536 10542 10551 10562 10566 10562 10561 10564 10566 10571 10575 10577 10578 10579 10585 10589 10591 10600 10602 10603 10606 10604 10619 10633 10624 10629 10643 10643 10645 10653 10665 10680 10682 10685 10695 10697 10700 10706 10710 10715 10720 10726 10733 10741
10413 10406 10400 10395 10390 10387 10382 10378 10376 10375 10373 10375 10376 10376 10378 10378 10379 10382 10389 10400 10407 10410 10417 10423 10427 10434 10438 10437 10442 10451 10456 10464 10469 10471 10479 10487 10493 10497 10502 10507 10514 10517 10520 10526 10533 10540 10549 10556 10554 10551 10553 10556 10560 10565 10568 10570 10572 10575 10581 10585 10589 10598 10597 10596 10605 10602 10610 10626 10618 10620 10635 10637 10639 10648 10661 10675 10678 10682 10690 10691 10696 10702 10706 10712 10717 10722 10730 10739
10396 10388 10383 10377 10373 10370 10364 10361 10360 10358 10358 10358 10359 10360 10361 10362 10362 10366 10374 10384 10393 10398 10401 10407 10411 10418 10426 10422 10423 10439 10450 10452 10457 10462 10468 10480 10485 10487 10493 10500 10503 10507 10515 10522 10527 10533 10542 10544 10542 10542 10546 10550 10554 10558 10562 10565 10568 10571 10577 10582 10586 10592 10591 10592 10598 10595 10602 10618 10615 10615 10628 10633 10636 10644 10657 10669 10673 10678 10684 10686 10692 10698 10701 10706 10712 10716 10724 10734
10379 10372 10367 10362 10358 10353 10349 10346 10344 10344 10344 10343 10344 10345 10345 10346 10347 10352 10359 10368 10380 10383 10380 10389 10399 10404 10407 10406 10412 10430 10438 10441 10448 10453 10460 10470 10473 10477 10484 10488 10493 10503 10510 10514 10518 10526 10532 10533 10534 10538 10542 10545 10548 10553 10558 10561 10562 10565 10572 10579 10582 10584 10587 10588 10587 10587 10599 10614 10613 10610 10619 10628 10632 10637 10651 10663 10667 10672 10678 10681 10687 10693 10697 10700 10705 10711 10720 10727
10363 10357 10352 10347 10343 10338 10334 10332 10331 10330 10329 10329 10330 10330 10331 10333 10334 10339 10345 10354 10366 10364 10360 10373 10385 10388 10390 10394 10404 10415 10424 10434 10439 10440 10449 10458 10461 10467 10474 10479 10488 10496 10501 10503 10508 10517 10524 10526 10530 10534 10536 10540 10543 10548 10553 10553 10556 10562 10569 10575 10576 10576 10580 10581 10577 10581 10598 10610 10607 10603 10611 10623 10626 10631 10645 10656 10660 10665 10671 10677 10682 10687 10692 10695 10699 10707 10715 10716
10350 10343 10338 10333 10330 10326 10321 10318 10318 10317 10317 10317 10316 10317 10320 10321 10322 10327 10332 10343 10349 10342 10346 10362 10370 10376 10379 10380 10390 10403 10416 10425 10424 10429 10441 10447 10450 10457 10465 10473 10481 10487 10491 10493 10500 10513 10519 10520 10524 10527 10529 10534 10538 10544 10548 10548 10553 10559 10564 10567 10568 10568 10572 10574 10573 10579 10595 10603 10599 10599 10608 10616 10620 10629 10641 10648 10653 10657 10663 10672 10677 10681 10685 10689 10695 10703 10704 10703
10337 10331 10325 10320 10317 10314 10309 10306 10305 10305 10306 10306 10304 10305 10308 10309 10312 10315 10321 10330 10330 10327 10339 10351 10355 10363 10365 10365 10379 10394 10405 10409 10413 10422 10430 10433 10438 10446 10457 10466 10472 10477 10481 10486 10498 10509 10509 10510 10517 10520 10523 10530 10535 10539 10540 10543 10549 10554 10556 10559 10561 10561 10566 10570 10570 10576 10587 10593 10594 10597 10603 10610 10619 10629 10635 10640 10649 10653 10659 10667 10672 10675 10678 10684 10692 10694 10691 10692
10325 10319 10314 10309 10305 10303 10299 10296 10294 10294 10296 10295 10294 10294 10296 10300 10302 10305 10312 10317 10314 10317 10329 10335 10339 10348 10352 10357 10371 10380 10388 10397 10403 10408 10414 10421 10428 10437 10449 10457 10462 10466 10470 10481 10492 10495 10497 10504 10510 10513 10518 10526 10530 10531 10532 10538 10546 10547 10547 10553 10554 10555 10562 10564 10564 10571 10580 10587 10592 10595 10600 10610 10620 10625 10628 10635 10646 10651 10656 10661 10665 10669 10672 10677 10684 10683 10681 10684
10314 10309 10304 10299 10295 10292 10290 10287 10285 10285 10286 10285 10285 10285 10286 10291 10292 10296 10303 10302 10299 10306 10315 10320 10328 10337 10342 10350 10359 10365 10374 10384 10388 10392 10403 10415 10420 10427 10438 10445 10450 10456 10464 10474 10480 10484 10492 10497 10500 10507 10515 10519 10521 10522 10524 10534 10542 10537 10538 10547 10549 10551 10557 10558 10561 10567 10574 10585 10594 10596 10601 10609 10616 10619 10622 10632 10642 10646 10649 10652 10657 10663 10666 10671 10675 10673 10673 10674
10304 10299 10294 10290 10286 10282 10280 10278 10277 10276 10276 10276 10277 10277 10278 10280 10284 10288 10290 10287 10288 10298 10305 10312 10321 10328 10333 10340 10346 10351 10359 10368 10375 10384 10397 10408 10411 10419 10429 10436 10444 10451 10458 10467 10474 10480 10486 10488 10495 10505 10509 10509 10512 10515 10521 10531 10534 10529 10533 10542 10544 10546 10549 10551 10558 10564 10573 10589 10598 10597 10599 10604 10609 10614 10619 10628 10637 10640 10642 10644 10650 10656 10661 10667 10669 10668 10668 10668
10295 10290 10286 10281 10277 10274 10271 10270 10269 10267 10267 10267 10268 10269 10270 10271 10275 10277 10277 10278 10284 10291 10298 10306 10313 10319 10325 10331 10336 10342 10349 10357 10368 10378 10389 10399 10404 10412 10423 10432 10441 10447 10454 10464 10471 10473 10475 10482 10492 10498 10498 10500 10507 10514 10520 10525 10526 10525 10530 10536 10539 10542 10544 10549 10558 10565 10577 10592 10595 10590 10591 10595 10603 10609 10613 10622 10630 10633 10634 10638 10644 10648 10653 10661 10664 10662 10663 10662
10288 10283 10278 10274 10269 10266 10264 10262 10261 10260 10260 10260 10260 10261 10262 10264 10267 10268 10270 10274 10279 10285 10293 10301 10306 10311 10317 10322 10327 10335 10342 10349 10360 10370 10379 10387 10393 10401 10413 10421 10429 10438 10447 10455 10458 10460 10466 10477 10484 10486 10492 10499 10506 10512 10516 10519 10522 10526 10529 10532 10536 10540 10543 10549 10558 10566 10577 10585 10584 10580 10580 10587 10598 10602 10608 10617 10622 10624 10627 10632 10637 10639 10647 10656 10657 10656 10658 10658
10280 10275 10271 10267 10262 10259 10257 10256 10254 10254 10254 10254 10253 10254 10256 10258 10260 10263 10266 10269 10274 10282 10289 10294 10299 10304 10310 10315 10319 10327 10333 10341 10353 10362 10369 10377 10384 10394 10404 10413 10422 10430 10435 10439 10445 10453 10462 10472 10479 10483 10491 10499 10502 10507 10511 10512 10518 10523 10523 10524 10530 10537 10543 10549 10555 10563 10569 10572 10572 10570 10572 10584 10595 10599 10604 10611 10614 10617 10621 10625 10627 10631 10643 10652 10651 10652 10654 10653
10274 10269 10264 10260 10257 10254 10252 10250 10249 10248 10249 10249 10248 10249 10251 10252 10255 10258 10261 10264 10270 10278 10283 10288 10293 10298 10303 10308 10314 10320 10325 10334 10346 10353 10359 10369 10378 10387 10398 10408 10417 10422 10425 10433 10444 10452 10457 10466 10474 10477 10485 10493 10496 10501 10504 10504 10512 10517 10513 10517 10528 10537 10542 10543 10547 10554 10558 10560 10561 10561 10569 10582 10591 10593 10597 10602 10606 10611 10615 10618 10620 10628 10642 10649 10649 10651 10652 10650
10268 10264 10259 10256 10253 10250 10248 10246 10244 10244 10244 10244 10244 10245 10246 10249 10251 10254 10257 10261 10267 10273 10278 10282 10287 10291 10296 10301 10306 10312 10318 10328 10338 10343 10351 10361 10369 10378 10389 10399 10407 10412 10420 10431 10440 10445 10450 10458 10466 10469 10478 10488 10490 10493 10495 10497 10507 10509 10506 10519 10532 10532 10531 10534 10540 10547 10551 10554 10558 10562 10571 10580 10584 10587 10590 10594 10599 10604 10609 10613 10617 10627 10639 10644 10646 10648 10647 10646
10264 10260 10255 10251 10249 10246 10244 10242 10241 10240 10240 10240 10241 10242 10244 10246 10248 10250 10254 10258 10264 10269 10274 10278 10281 10286 10291 10296 10301 10307 10315 10324 10332 10337 10344 10353 10362 10373 10382 10390 10398 10405 10413 10423 10431 10437 10443 10450 10457 10464 10474 10482 10482 10482 10484 10489 10500 10505 10508 10519 10522 10517 10521 10530 10537 10542 10546 10552 10558 10564 10571 10575 10579 10582 10584 10590 10595 10599 10606 10610 10614 10623 10632 10636 10639 10640 10640 10640
10260 10256 10251 10248 10245 10242 10241 10239 10238 10237 10237 10238 10239 10240 10242 10243 10245 10248 10252 10256 10261 10266 10271 10274 10277 10283 10288 10294 10300 10305 10312 10321 10328 10334 10340 10349 10358 10367 10375 10383 10392 10399 10406 10415 10424 10430 10435 10440 10448 10459 10468 10473 10471 10470 10475 10486 10498 10504 10504 10506 10509 10515 10523 10530 10536 10540 10545 10552 10556 10562 10567 10570 10575 10578 10579 10588 10592 10594 10600 10606 10611 10619 10625 10628 10630 10630 10631 10633
10256 10252 10248 10245 10242 10240 10238 10237 10236 10235 10235 10236 10237 10239 10240 10242 10245 10247 10251 10255 10259 10263 10267 10270 10275 10281 10287 10293 10298 10304 10311 10318 10323 10329 10337 10346 10354 10361 10368 10377 10387 10393 10399 10409 10418 10423 10427 10431 10442 10455 10460 10462 10462 10464 10474 10488 10496 10497 10496 10501 10511 10518 10521 10526 10533 10538 10541 10547 10552 10556 10561 10566 10571 10572 10575 10584 10587 10587 10595 10602 10606 10611 10615 10617 10620 10623 10626 10629
10254 10250 10246 10243 10241 10239 10237 10236 10235 10234 10234 10235 10236 10238 10239 10242 10245 10247 10250 10254 10257 10260 10265 10269 10274 10280 10286 10292 10297 10302 10308 10313 10318 10324 10332 10340 10347 10354 10362 10372 10380 10386 10393 10404 10410 10415 10419 10424 10437 10448 10449 10453 10460 10467 10479 10487 10489 10491 10495 10504 10513 10514 10516 10523 10529 10532 10537 10543 10548 10552 10556 10561 10565 10566 10571 10579 10581 10582 10591 10597 10598 10601 10606 10610 10614 10619 10624 10627
10252 10248 10245 10242 10240 10238 10236 10235 10234 10234 10234 10235 10236 10237 10239 10241 10244 10247 10249 10252 10256 10259 10264 10269 10275 10280 10286 10291 10295 10299 10304 10310 10317 10323 10327 10333 10341 10350 10359 10368 10374 10379 10388 10397 10402 10408 10415 10421 10432 10441 10446 10454 10463 10469 10475 10480 10483 10488 10494 10501 10506 10508 10513 10519 10525 10531 10535 10539 10544 10547 10551 10556 10559 10562 10568 10573 10575 10578 10585 10590 10591 10593 10600 10607 10611 10616 10621 10625
10252 10248 10244 10241 10239 10238 10236 10235 10234 10234 10234 10235 10236 10238 10239 10241 10243 10246 10249 10252 10256 10260 10265 10270 10275 10280 10285 10289 10294 10299 10305 10311 10316 10321 10325 10333 10341 10348 10357 10364 10369 10375 10384 10392 10398 10406 10413 10418 10427 10439 10448 10454 10458 10462 10469 10474 10478 10482 10488 10495 10500 10503 10509 10518 10524 10528 10529 10533 10538 10541 10545 10550 10554 10559 10562 10564 10568 10572 10578 10584 10586 10587 10594 10603 10609 10613 10618 10621
10253 10249 10245 10242 10240 10239 10237 10236 10235 10235 10235 10235 10237 10238 10240 10242 10244 10247 10250 10254 10258 10262 10266 10271 10275 10280 10285 10290 10295 10300 10306 10310 10314 10319 10326 10333 10339 10345 10352 10359 10365 10373 10381 10387 10393 10401 10408 10415 10425 10436 10443 10445 10449 10456 10463 10466 10471 10478 10487 10493 10497 10501 10508 10514 10515 10516 10520 10526 10530 10534 10540 10545 10549 10553 10554 10556 10562 10569 10574 10578 10580 10582 10590 10602 10608 10610 10612 10613
10254 10251 10247 10244 10242 10240 10238 10237 10237 10237 10237 10238 10239 10240 10242 10244 10246 10249 10253 10256 10260 10264 10268 10272 10277 10282 10287 10291 10296 10301 10305 10309 10314 10321 10327 10332 10337 10344 10351 10357 10363 10371 10378 10384 10391 10399 10406 10413 10422 10433 10439 10441 10446 10454 10460 10465 10472 10481 10486 10489 10494 10498 10500 10502 10503 10507 10514 10521 10524 10529 10534 10539 10544 10547 10548 10551 10559 10566 10569 10571 10575 10580 10588 10597 10600 10601 10604 10606
10257 10253 10250 10247 10245 10243 10241 10240 10240 10240 10240 10241 10242 10243 10246 10248 10250 10253 10256 10259 10263 10266 10270 10275 10279 10284 10288 10293 10297 10301 10305 10310 10316 10323 10327 10331 10337 10344 10351 10356 10363 10369 10374 10381 10388 10396 10404 10412 10422 10432 10439 10443 10451 10459 10465 10469 10474 10479 10481 10484 10489 10491 10492 10496 10500 10506 10513 10518 10521 10524 10528 10534 10539 10543 10545 10549 10556 10562 10565 10567 10573 10578 10583 10587 10591 10595 10599 10601
10258 10255 10252 10250 10247 10245 10244 10243 10243 10243 10244 10245 10246 10248 10250 10252 10254 10257 10260 10263 10266 10270 10274 10278 10282 10287 10290 10294 10298 10302 10307 10311 10315 10321 10327 10332 10339 10345 10350 10356 10360 10365 10370 10378 10385 10394 10402 10410 10421 10431 10437 10442 10447 10453 10457 10460 10466 10474 10477 10481 10485 10487 10489 10494 10499 10505 10512 10515 10517 10520 10525 10531 10535 10538 10542 10545 10551 10558 10561 10563 10569 10575 10581 10584 10588 10593 10594 10595
10261 10258 10255 10253 10250 10248 10247 10246 10246 10247 10248 10248 10250 10251 10253 10255 10258 10260 10263 10267 10270 10274 10278 10281 10285 10289 10293 10296 10300 10304 10308 10313 10317 10322 10327 10334 10340 10345 10349 10354 10359 10364 10372 10380 10388 10396 10404 10412 10421 10428 10431 10434 10438 10443 10449 10453 10460 10467 10470 10473 10478 10482 10485 10490 10497 10504 10507 10510 10515 10517 10520 10526 10530 10534 10537 10540 10548 10555 10555 10557 10564 10574 10584 10587 10588 10589 10591 10592
10264 10262 10259 10256 10254 10253 10251 10251 10250 10251 10252 10252 10253 10254 10256 10259 10262 10264 10267 10270 10274 10277 10281 10284 10288 10292 10295 10299 10303 10307 10310 10315 10321 10325 10329 10335 10340 10344 10348 10354 10360 10367 10375 10383 10390 10398 10405 10412 10419 10423 10425 10428 10434 10440 10445 10450 10455 10460 10463 10468 10474 10478 10482 10488 10496 10500 10501 10506 10512 10512 10514 10521 10526 10528 10531 10536 10545 10548 10548 10552 10559 10567 10577 10582 10582 10585 10589 10591
10268 10265 10263 10260 10259 10257 10256 10256 10255 10255 10256 10256 10257 10258 10260 10263 10266 10269 10271 10274 10278 10281 10284 10288 10292 10295 10299 10303 10307 10310 10314 10318 10322 10326 10331 10337 10341 10346 10350 10356 10362 10370 10377 10384 10391 10397 10403 10409 10414 10417 10421 10426 10430 10434 10440 10445 10451 10455 10459 10464 10470 10475 10479 10485 10491 10494 10496 10501 10506 10507 10510 10515 10519 10524 10530 10535 10539 10540 10542 10549 10554 10559 10564 10569 10572 10577 10583 10587
10272 10269 10267 10265 10263 10261 10261 10260 10260 10260 10261 10261 10262 10263 10265 10268 10270 10273 10276 10279 10282 10285 10288 10292 10296 10299 10303 10307 10310 10314 10317 10320 10323 10328 10333 10339 10344 10349 10354 10359 10366 10373 10379 10385 10391 10395 10401 10406 10409 10412 10417 10422 10427 10432 10439 10444 10447 10451 10456 10461 10467 10471 10474 10480 10485 10488 10492 10496 10500 10503 10506 10510 10516 10524 10529 10531 10532 10536 10541 10546 10550 10554 10558 10560 10564 10570 10575 10579
10276 10274 10272 10270 10268 10266 10265 10265 10265 10265 10266 10267 10268 10269 10270 10272 10275 10277 10280 10283 10286 10289 10292 10295 10299 10303 10306 10310 10313 10317 10320 10323 10326 10329 10334 10340 10345 10351 10356 10361 10367 10373 10379 10385 10389 10393 10398 10403 10406 10411 10417 10422 10427 10433 10439 10442 10444 10449 10454 10459 10465 10468 10472 10478 10481 10484 10489 10493 10495 10499 10502 10507 10514 10520 10523 10525 10528 10533 10538 10542 10546 10550 10553 10556 10559 10564 10568 10572
10280 10278 10276 10274 10272 10271 10270 10270 10270 10270 10271 10272 10272 10274 10275 10277 10279 10282 10284 10287 10289 10292 10296 10299 10303 10306 10309 10312 10315 10318 10322 10325 10329 10333 10336 10341 10346 10351 10357 10363 10368 10372 10378 10383 10387 10392 10398 10402 10406 10412 10417 10421 10426 10431 10435 10438 10443 10449 10454 10459 10463 10466 10470 10474 10477 10481 10486 10489 10491 10495 10499 10503 10508 10512 10517 10522 10526 10530 10534 10538 10542 10546 10548 10552 10556 10560 10564 10570